GW5292 Weather Reports


Display with metric or nautical units.
time (UTC)temp
F
wind
direction
speed
MPH
gust
MPH
rain 1hr
in
rain 24hr
in
rain mn
in
humidity
%
barometer
mb
20260509161508 57 202 1.0 3.0 0.01 0.01 0.01 82 1011.7
20260509160012 57 209 0.0 4.0 0.00 0.00 0.00 78 1011.8
20260509154518 58 211 2.0 4.0 0.00 0.00 0.00 72 1011.8
20260509153026 59 197 4.0 7.0 0.00 0.00 0.00 66 1011.9
20260509151508 60 175 3.0 6.0 0.00 0.00 0.00 67 1012.0
20260509150010 60 223 3.0 5.0 0.00 0.00 0.00 71 1011.8
20260509144514 59 204 2.0 6.0 0.00 0.00 0.00 72 1011.7
20260509143019 59 189 2.0 5.0 0.00 0.00 0.00 71 1011.7
20260509141526 59 205 2.0 3.0 0.00 0.00 0.00 71 1011.1
20260509140011 59 180 1.0 2.0 0.00 0.00 0.00 73 1011.2
20260509134512 59 196 0.0 2.0 0.00 0.00 0.00 74 1011.2
20260509133020 58 192 0.0 2.0 0.00 0.00 0.00 75 1011.3
20260509131522 57 138 1.0 2.0 0.00 0.00 0.00 75 1011.2
20260509130036 56 38 0.0 2.0 0.00 0.00 0.00 76 1011.3
20260509124511 56 33 0.0 2.0 0.00 0.00 0.00 77 1011.2
20260509123018 56 180 0.0 2.0 0.00 0.00 0.00 77 1011.2
20260509121525 55 20 0.0 2.0 0.00 0.00 0.00 78 1011.3
20260509120024 55 20 0.0 2.0 0.00 0.00 0.00 78 1011.3
20260509114528 54 20 0.0 2.0 0.00 0.00 0.00 79 1011.2
20260509113012 53 20 0.0 2.0 0.00 0.00 0.00 84 1011.2
20260509111520 52 20 0.0 2.0 0.00 0.00 0.00 87 1011.0
20260509110024 51 20 0.0 2.0 0.00 0.00 0.00 86 1011.0
20260509104509 51 20 0.0 2.0 0.00 0.00 0.00 87 1010.7
20260509103011 50 20 0.0 2.0 0.00 0.00 0.00 86 1010.9
20260509101523 51 20 0.0 2.0 0.00 0.00 0.00 85 1010.8
20260509100004 50 88 1.0 2.0 0.00 0.00 0.00 85 1010.7
20260509094503 50 135 0.0 2.0 0.00 0.00 0.00 86 1010.8
20260509093008 50 146 0.0 2.0 0.00 0.00 0.00 86 1010.8
20260509091514 50 146 0.0 2.0 0.00 0.00 0.00 86 1011.1
20260509090032 50 148 0.0 2.0 0.00 0.00 0.00 87 1011.2
20260509084504 50 148 0.0 2.0 0.00 0.00 0.00 86 1011.3
20260509083020 49 148 0.0 2.0 0.00 0.00 0.00 87 1011.3
20260509081512 50 148 0.0 2.0 0.00 0.00 0.00 86 1011.6
20260509080020 50 148 0.0 0.0 0.00 0.00 0.00 85 1011.6
20260509074522 50 148 0.0 0.0 0.00 0.00 0.00 85 1011.6
20260509073007 50 148 0.0 2.0 0.00 0.00 0.00 84 1011.6
20260509071511 51 111 0.0 0.0 0.00 0.00 0.00 83 1011.4
20260509070015 51 111 0.0 1.0 0.00 0.00 0.00 83 1011.4
20260509064520 51 97 0.0 2.0 0.00 0.00 0.00 83 1011.3
20260509063026 51 115 0.0 2.0 0.00 0.00 0.00 83 1011.4
20260509061508 51 114 0.0 0.0 0.00 0.00 0.00 82 1011.6
20260509060012 51 114 0.0 2.0 0.00 0.00 0.00 82 1011.9
20260509054516 51 109 0.0 0.0 0.00 0.00 0.00 81 1012.2
20260509053031 52 104 0.0 0.0 0.00 0.00 0.00 79 1012.3
20260509051526 53 104 0.0 0.0 0.00 0.00 0.00 78 1012.3
20260509050012 53 104 0.0 0.0 0.00 0.00 0.00 78 1012.3
20260509044518 53 104 0.0 2.0 0.00 0.00 0.00 77 1012.3
20260509043019 54 105 0.0 2.0 0.00 0.00 0.00 77 1012.1
20260509041503 54 33 1.0 2.0 0.00 0.00 0.00 76 1012.6
20260509040014 54 160 0.0 0.0 0.00 0.00 0.00 74 1013.0
20260509034513 54 160 0.0 2.0 0.00 0.00 0.00 75 1013.1
20260509033015 53 160 0.0 2.0 0.00 0.00 0.00 77 1013.0
20260509031532 53 160 0.0 0.0 0.00 0.00 0.00 76 1012.4
20260509030005 54 160 0.0 2.0 0.00 0.00 0.00 73 1012.6
20260509024510 54 160 0.0 2.0 0.00 0.00 0.00 72 1012.4
20260509023016 54 160 0.0 2.0 0.00 0.00 0.00 71 1012.5
20260509021533 54 160 0.0 0.0 0.00 0.00 0.00 69 1012.6
20260509020023 55 160 0.0 0.0 0.00 0.00 0.00 65 1012.5
20260509014505 56 160 0.0 0.0 0.00 0.00 0.00 63 1012.3
20260509013012 56 160 0.0 0.0 0.00 0.00 0.00 60 1012.3
20260509011514 57 160 0.0 0.0 0.00 0.00 0.00 59 1012.1
20260509010023 58 160 0.0 0.0 0.00 0.00 0.00 56 1011.9
20260509004526 59 160 0.0 2.0 0.00 0.00 0.00 54 1011.6
20260509003011 60 160 0.0 2.0 0.00 0.00 0.00 52 1011.5
20260509001516 61 160 0.0 2.0 0.00 0.00 0.00 51 1011.2
20260509000018 61 146 0.0 2.0 0.00 0.00 0.00 50 1011.1
20260508234525 61 45 0.0 2.0 0.00 0.00 0.00 49 1010.9
20260508233028 61 207 2.0 3.0 0.00 0.00 0.00 49 1011.0
20260508231510 62 206 0.0 2.0 0.00 0.00 0.00 50 1010.9
20260508230013 62 206 0.0 2.0 0.00 0.00 0.00 49 1010.6
20260508224519 62 203 0.0 2.0 0.00 0.00 0.00 47 1010.6
20260508223040 62 215 1.0 3.0 0.00 0.00 0.00 47 1010.5
20260508221504 63 221 2.0 4.0 0.00 0.00 0.00 46 1010.7
20260508220004 62 209 1.0 4.0 0.00 0.00 0.00 48 1010.6
20260508214503 63 208 1.0 3.0 0.00 0.00 0.00 46 1010.7
20260508213010 63 193 1.0 4.0 0.00 0.00 0.00 46 1010.7
20260508211503 63 196 1.0 6.0 0.00 0.00 0.00 46 1010.8
20260508210004 64 160 1.0 6.0 0.00 0.00 0.00 44 1010.6
20260508204504 64 170 3.0 6.0 0.00 0.00 0.00 45 1010.6
20260508203003 64 166 3.0 8.0 0.00 0.00 0.00 45 1010.8
20260508201506 64 98 2.0 10.0 0.00 0.00 0.00 42 1011.0
20260508200009 65 204 4.0 8.0 0.00 0.00 0.00 43 1011.2
20260508194503 64 67 1.0 4.0 0.00 0.00 0.00 45 1011.3
20260508193003 62 192 4.0 8.0 0.00 0.00 0.00 45 1011.4
20260508191503 63 211 2.0 7.0 0.00 0.00 0.00 43 1011.5
20260508190007 63 121 2.0 10.0 0.00 0.00 0.00 45 1011.6
20260508184516 63 170 4.0 10.0 0.00 0.00 0.00 44 1011.5
20260508183009 62 220 4.0 10.0 0.00 0.00 0.00 43 1011.4
20260508181513 61 213 3.0 11.0 0.00 0.00 0.00 44 1011.5
20260508180005 63 188 2.0 12.0 0.00 0.00 0.00 43 1011.4
20260508174508 62 215 3.0 11.0 0.00 0.00 0.00 47 1011.4
20260508173007 62 238 4.0 11.0 0.00 0.00 0.00 42 1011.7
20260508171511 63 59 4.0 8.0 0.00 0.00 0.00 46 1011.9
20260508170009 61 144 3.0 10.0 0.00 0.00 0.00 46 1012.2
20260508164505 62 186 7.0 12.0 0.00 0.00 0.00 47 1012.5
20260508163012 61 203 4.0 13.0 0.00 0.00 0.00 44 1012.5